Weather History for Marathon, FL

Change the Weather History Date:

Sunday, July 28, 2013

  Actual Average Record
Temperature  
Mean Temperature 85 °F 85 °F  
Max Temperature 92 °F 91 °F 93 °F (1999)
Min Temperature 78 °F 80 °F 73 °F (2004)
Degree Days  
Heating Degree Days 0 0  
Month to date heating degree days 0 0  
Since 1 June heating degree days 0 0  
Since 1 July heating degree days 0 0  
Cooling Degree Days 20 20  
Month to date cooling degree days 556 560  
Year to date cooling degree days 3002 2697  
Since 1 June cooling degree days 1172 1154  
Growing Degree Days 34 (Base 50)    
Moisture  
Dew Point 73 °F    
Average Humidity 74    
Maximum Humidity 91    
Minimum Humidity 56    
Precipitation  
Precipitation 0.00 in 0.16 in 1.41 in (2004)
Month to date precipitation 7.94 3.81  
Year to date precipitation 36.95 21.36  
Snow  
Snow 0.00 in - - ()
Month to date snowfall 0.0  
Since 1 June snowfall 0.0  
Since 1 July snowfall 0.0  
Snow Depth 0.00 in    
Sea Level Pressure  
Sea Level Pressure 30.02 in    
Wind  
Wind Speed 3 mph (ESE)    
Max Wind Speed 7 mph    
Max Gust Speed 9 mph    
Visibility 8 miles    
Events Rain , Thunderstorm    
T = Trace of Precipitation, MM = Missing Value Source: NWS Daily Summary

Daily Weather History Graph

Daily Weather History Graph

Search for Another Location

Airport:

Trip Planner

Search our weather history database for the weather conditions in past years. The results will help you decide how hot, cold, wet, or windy it might be!

Date:

Astronomy

Jul. 28, 2013 Rise Set
Actual Time 6:50 AM EDT 8:10 PM EDT
Civil Twilight 6:25 AM EDT 8:35 PM EDT
Nautical Twilight 5:56 AM EDT 9:04 PM EDT
Astronomical Twilight 5:26 AM EDT 9:34 PM EDT
Moon No Moon Rise 12:42 PM EDT (7/28)
Length of Visible Light 14h 09m
Length of Day
13h 20m
Waning Gibbous, 61% of the Moon is Illuminated
Jul 28
Waning Gibbous
Jul 29
Last Quarter
Aug 6
New
Aug 14
First Quarter
Aug 20
Full

Hourly Weather History & Observations

Time (EDT) Temp. Heat Index Dew Point Humidity Pressure Visibility Wind Dir Wind Speed Gust Speed Precip Events Conditions
12:03 AM 78.8 °F - 71.6 °F 78% 30.03 in 0.8 mi Calm Calm - 0.36 in Rain , Thunderstorm Heavy Thunderstorms and Rain
12:21 AM 78.8 °F - 73.4 °F 83% 30.01 in 2.0 mi NNE 4.6 mph - 0.58 in Rain , Thunderstorm Thunderstorms and Rain
12:24 AM 78.8 °F - 73.4 °F 83% 30.02 in 4.0 mi NNE 5.8 mph - 0.58 in Rain Light Rain
12:39 AM 78.8 °F - 73.4 °F 83% 30.02 in 10.0 mi Calm Calm - 0.58 in   Mostly Cloudy
12:53 AM 79.0 °F - 73.9 °F 84% 30.01 in 9.0 mi Calm Calm - 0.58 in   Scattered Clouds
1:53 AM 79.0 °F - 73.9 °F 84% 29.99 in 9.0 mi Calm Calm - N/A   Clear
2:53 AM 80.1 °F 85.1 °F 75.0 °F 85% 29.97 in 8.0 mi Calm Calm - N/A   Clear
3:53 AM 79.0 °F - 73.9 °F 84% 29.96 in 8.0 mi Calm Calm - N/A   Clear
4:53 AM 79.0 °F - 75.0 °F 88% 29.97 in 7.0 mi Calm Calm - N/A   Clear
5:53 AM 79.0 °F - 73.9 °F 84% 29.98 in 7.0 mi Calm Calm - N/A   Clear
6:53 AM 79.0 °F - 75.0 °F 88% 29.99 in 8.0 mi Calm Calm - N/A   Clear
7:53 AM 78.1 °F - 75.0 °F 90% 30.00 in 10.0 mi SSE 4.6 mph - N/A   Scattered Clouds
8:53 AM 82.9 °F 90.2 °F 75.0 °F 77% 30.02 in 10.0 mi Variable 4.6 mph - N/A   Partly Cloudy
9:53 AM 84.9 °F 92.1 °F 73.9 °F 69% 30.02 in 10.0 mi SSE 5.8 mph - N/A   Clear
10:53 AM 89.1 °F 97.0 °F 73.0 °F 59% 30.04 in 10.0 mi SSE 4.6 mph - N/A   Clear
11:53 AM 89.1 °F 98.0 °F 73.9 °F 61% 30.04 in 10.0 mi Variable 3.5 mph - N/A   Clear
12:53 PM 89.1 °F 97.0 °F 73.0 °F 59% 30.04 in 10.0 mi South 6.9 mph - N/A   Clear
1:53 PM 90.0 °F 99.0 °F 73.9 °F 59% 30.04 in 9.0 mi Variable 3.5 mph - N/A   Clear
2:53 PM 91.0 °F 100.4 °F 73.9 °F 57% 30.03 in 10.0 mi Variable 3.5 mph - N/A   Clear
3:53 PM 91.0 °F 101.6 °F 75.0 °F 59% 30.01 in 6.0 mi South 3.5 mph - N/A   Haze
4:53 PM 90.0 °F 96.9 °F 72.0 °F 55% 30.01 in 3.0 mi SSE 5.8 mph - N/A   Haze
5:53 PM 90.0 °F 96.9 °F 72.0 °F 55% 30.01 in 7.0 mi Variable 4.6 mph - N/A   Clear
6:53 PM 88.0 °F 94.7 °F 72.0 °F 59% 30.01 in 10.0 mi East 3.5 mph - N/A   Partly Cloudy
7:53 PM 87.1 °F 94.5 °F 73.0 °F 63% 30.04 in 10.0 mi Calm Calm - N/A   Clear
8:53 PM 86.0 °F 93.0 °F 73.0 °F 65% 30.04 in 10.0 mi Variable 3.5 mph - N/A   Clear
9:53 PM 86.0 °F 91.5 °F 71.1 °F 61% 30.06 in 10.0 mi ENE 3.5 mph - N/A   Clear
10:53 PM 84.9 °F 90.7 °F 72.0 °F 65% 30.08 in 10.0 mi Calm Calm - N/A   Clear
11:48 PM 84.2 °F 90.9 °F 73.4 °F 70% 30.07 in 10.0 mi Calm Calm - N/A   Partly Cloudy
11:53 PM 86.0 °F 93.0 °F 73.0 °F 65% 30.07 in 10.0 mi ENE 5.8 mph - N/A   Clear